Regional Weather Roundup
Issued by NWS

Home | Current Version | Previous Version | Text Only | Print | Product List | Glossary Off
Versions: 1 2 3 4 5 6 7 8 9 10 11 12 13 14 15 16 17 18 19 20 21 22 23 24 25 26 27 28 29 30 31 32 33 34 35 36 37 38 39 40 41 42 43 44 45 46 47 48 49 50

000
ASUS43 KDTX 041610
RWRMI
MICHIGAN HOURLY REGIONAL WEATHER ROUNDUP
NATIONAL WEATHER SERVICE DETROIT/PONTIAC MI
1200 PM EDT FRI SEP 04 2015

NOTE: "FAIR" INDICATES FEW OR NO CLOUDS BELOW 12,000 FEET WITH NO
SIGNIFICANT WEATHER AND/OR OBSTRUCTION TO VISIBILITY.

MIZ047>049-052>055-059>063-066>070-074>076-081>083-041700-
SOUTHEAST LOWER MICHIGAN

CITY           SKY/WX    TMP DP  RH WIND       PRES   REMARKS
ADRIAN         PTSUNNY   75  69  81 VRB3      30.04R
ALMA           CLOUDY    69  69 100 CALM      30.03R FOG
ANN ARBOR      CLOUDY    71  67  87 CALM      30.03S
BAD AXE        CLOUDY    73  69  85 SE7       30.07R
DETROIT CITY   CLOUDY    76  67  73 S13       30.03S
DETROIT        CLOUDY    75  68  78 SE7       30.03S
FLINT          CLOUDY    75  67  76 S6        30.03R
GROSSE ILE     CLOUDY    75  70  83 SE10      30.02S
HILLSDALE      MOSUNNY   74  69  85 NW7       30.05S HAZE
HOWELL         CLOUDY    72  68  86 S5        30.03S

CITY           SKY/WX    TMP DP  RH WIND       PRES   REMARKS
JACKSON        CLOUDY    73  66  78 VRB5      30.04R
LAMBERTVILLE   PTSUNNY   81  71  71 SW3       30.03R
LANSING        CLOUDY    73  67  81 S7        30.03S
LAPEER         NOT AVBL
MASON          CLOUDY    72  65  79 SW5       30.04R
MONROE         CLOUDY    78  70  75 W6        30.02S
MT. CLEMENS    CLOUDY    76  69  79 SE16      30.02S
PONTIAC        CLOUDY    72  68  87 SE6       30.03S
PORT HOPE        N/A     73  68  84 SE10      30.05R
PORT HURON     CLOUDY    75  70  83 SE8       30.04S
TRI CITIES     FOG       71  69  93 SE6       30.03S VSB 1
YPSILANTI      CLOUDY    77  70  79 SW5       30.04R
$$
MIZ043>046-050>051-056>058-064>065-071>073-077>080-041700-
SOUTHWEST LOWER MICHIGAN

CITY           SKY/WX    TMP DP  RH WIND       PRES   REMARKS
BATTLE CREEK   MOSUNNY   77  64  64 VRB5      30.04S
BENTON HARBOR  CLOUDY    73  66  78 VRB6      30.04S
BIG RAPIDS     CLOUDY    69  67  94 E5        30.04R
COLDWATER      CLOUDY    74  66  75 W6        30.05S
HOLLAND        MOSUNNY   75  67  76 SW9       30.04R
GRAND RAPIDS   CLOUDY    72  67  84 SW9       30.03R
KALAMAZOO      MOSUNNY   77  64  64 NW9       30.04R
MARSHALL       PTSUNNY   77  65  65 CALM      30.04R
MUSKEGON       CLOUDY    72  66  81 SW7       30.03R
$$
MIZ016>042-041700-
NORTHERN LOWER MICHIGAN

CITY           SKY/WX    TMP DP  RH WIND       PRES   REMARKS
ALPENA         MOSUNNY   74  67  78 E14G20    30.08R
BEAVER ISLAND  MOSUNNY   73  63  70 E13       30.06S
BELLAIRE       CLOUDY    72  66  83 CALM      30.04S
CADILLAC       CLOUDY    68  67  96 E7        30.05S FOG
CHARLEVOIX     MOSUNNY   73  65  77 E7        30.08R
FRANKFORT      CLOUDY    74  67  78 E5        30.03R
GAYLORD        CLOUDY    69  68  96 E6        30.08R FOG
GRAYLING       CLOUDY    69  67  94 E8        30.07S FOG
HARBOR SPRINGS CLOUDY    69  65  89 NE8       30.06S
HOUGHTON LAKE  CLOUDY    70  67  90 E8        30.05S
MANISTEE       PTSUNNY   73  64  73 SE3       30.03S
OSCODA         CLOUDY    71  69  96 SE6       30.07R
PELLSTON       CLOUDY    72  66  81 E12       30.07S
TRAVERSE CITY  CLOUDY    71  66  84 N6        30.03S
$$
MIZ007>008-015-041700-
EASTERN UPPER MICHIGAN

CITY           SKY/WX    TMP DP  RH WIND       PRES   REMARKS
KINROSS        MOSUNNY   75  64  69 SE14G21   30.09S
MACKINAC ISLAN CLOUDY    68  64  86 E14G22    30.08S
NEWBERRY       SUNNY     76  64  65 E6        30.08S
S. S. MARIE    MOSUNNY   75  64  68 SE9G18    30.09R
$$
MIZ004>006-011>014-085-041700-
CENTRAL UPPER MICHIGAN

CITY           SKY/WX    TMP DP  RH WIND       PRES   REMARKS
MANISTIQUE     MOSUNNY   75  63  65 E7        30.06S
ESCANABA       MOSUNNY   73  61  64 E6        30.05S
MENOMINEE      MOSUNNY   72  63  73 E6        30.05R
SAWYER-GWINN   SUNNY     75  61  60 E6        30.08S
$$
MIZ001>003-009>011-084-041700-
WESTERN UPPER MICHIGAN

CITY           SKY/WX    TMP DP  RH WIND       PRES   REMARKS
IRON MOUNTAIN  SUNNY     76  61  59 E7        30.07R
HOUGHTON       SUNNY     75  62  64 VRB6      30.07S
COPPER HARBOR    N/A     78  58  49 VRB7      30.06S
IRONWOOD       SUNNY     75  64  69 SE9       30.01S
$$

ABBREVIATIONS USED IN REMARKS
   TC - TEMPERATURE IN CELSIUS
  WCI - WIND CHILL INDEX
   HX - HEAT INDEX
  VSB - VISIBILITY




USA.gov is the U.S. government's official web portal to all federal, state and local government web resources and services.